Location: Arborea
(39.7744°N, 8.5819°E)
Time: 02:13:56
(UTC+00:00)

USA 229 - Pass Details

Date: 31 May 2022
Orbit: 938 x 1274 km, 63.4° (Epoch: 24 May)

Event Time Altitude Azimuth Distance (km) Brightness Sun altitude
Rises 22:25:16 0° 328° (NNW) 3,983 7.8 -26.7°
Reaches altitude 10° 22:27:57 10° 332° (NNW) 3,067 7.0 -26.9°
Maximum altitude 22:35:18 62° 52° (NE) 1,354 4.2 -27.2°
Enters shadow 22:38:08 40° 114° (ESE) 1,742 4.5 -27.3°
